Terminal Aerodrome Forecast
Issued by NWS

Home | Current Version | Previous Version | Text Only | Print | Product List | Glossary On
Versions: 1 2 3 4 5 6 7 8 9 10 11 12 13 14 15 16 17 18 19 20 21 22 23 24 25 26 27 28 29 30 31 32 33 34 35 36 37 38 39 40 41 42 43 44 45 46 47 48 49 50
000
FTUS42 KMFL 281810 AAA
TAFMIA
TAF AMD
KMIA 281810Z 2818/2918 12015G25KT P6SM VCSH SCT025 BKN060
     FM290000 10010KT P6SM VCTS SCT025CB BKN050 OVC100
     FM290800 12006KT P6SM VCTS SCT030CB
     FM291400 14010KT P6SM VCTS SCT030CB=

USA.gov is the U.S. government's official web portal to all federal, state and local government web resources and services.